Westhampton Beach, NY

11:48 PM EST on January 22, 2018 (GMT -0500)
The Gabreski

Weather History for KFOK - March, 2014

Change the Weather History Date:

Saturday, March 15, 2014

  Actual Average Record
Temperature  
Mean Temperature 47 °F -  
Max Temperature 62 °F 42 °F 62 °F (2014)
Min Temperature 35 °F 26 °F 17 °F (1998)
Degree Days  
Heating Degree Days 18    
Moisture  
Dew Point 30 °F    
Average Humidity 56    
Maximum Humidity 83    
Minimum Humidity 27    
Precipitation  
Precipitation 0.04 in - - ()
Sea Level Pressure  
Sea Level Pressure 29.85 in    
Wind  
Wind Speed 11 mph (WSW)    
Max Wind Speed 23 mph    
Max Gust Speed 37 mph    
Visibility 10 miles    
Events Rain    
Averages and records for this station are not official NWS values.
T = Trace of Precipitation, MM = Missing Value Source: NWS Daily Summary

Daily Weather History Graph

Daily Weather History Graph

Search for Another Location

Airport or City:

Trip Planner

Search our weather history database for the weather conditions in past years. The results will help you decide how hot, cold, wet, or windy it might be!

Date:

Astronomy

Mar. 15, 2014 Rise Set
Actual Time 7:02 AM EDT 6:57 PM EDT
Civil Twilight 6:34 AM EDT 7:24 PM EDT
Nautical Twilight 6:03 AM EDT 7:56 PM EDT
Astronomical Twilight 5:30 AM EDT 8:28 PM EDT
Moon 6:13 PM EDT (3/15) 6:12 AM EDT (3/15)
Length of Visible Light 12h 49m
Length of Day
11h 55m
Waxing Gibbous, 99% of the Moon is Illuminated
Mar 15
Waxing Gibbous
Mar 16
Full
Mar 23
Last Quarter
Mar 30
New
Apr 7
First Quarter

Hourly Weather History & Observations

Time (EDT) Temp. Windchill Dew Point Humidity Pressure Visibility Wind Dir Wind Speed Gust Speed Precip Events Conditions
12:53 AM 42.1 °F 36.6 °F 30.9 °F 65% 29.95 in 10.0 mi SSW 9.2 mph - N/A   Clear
1:53 AM 43.0 °F 37.7 °F 32.0 °F 65% 29.92 in 10.0 mi SSW 9.2 mph - N/A   Clear
2:53 AM 43.0 °F 38.8 °F 33.1 °F 68% 29.88 in 10.0 mi SW 6.9 mph - N/A   Clear
3:53 AM 42.1 °F 37.1 °F 33.1 °F 70% 29.86 in 10.0 mi SW 8.1 mph - N/A   Clear
4:53 AM 42.1 °F 35.2 °F 32.0 °F 67% 29.84 in 10.0 mi WSW 12.7 mph - N/A   Partly Cloudy
5:53 AM 42.1 °F 35.2 °F 33.1 °F 70% 29.84 in 10.0 mi SW 12.7 mph 19.6 mph N/A   Overcast
6:53 AM 39.9 °F 35.1 °F 35.1 °F 83% 29.81 in 6.0 mi South 6.9 mph - 0.04 in Rain Light Rain
7:53 AM 41.0 °F 37.1 °F 36.0 °F 82% 29.81 in 7.0 mi SSW 5.8 mph - 0.00 in   Overcast
8:53 AM 43.0 °F 36.4 °F 37.0 °F 80% 29.82 in 9.0 mi WSW 12.7 mph - N/A   Overcast
9:53 AM 45.0 °F 38.9 °F 36.0 °F 71% 29.79 in 10.0 mi SW 12.7 mph 19.6 mph N/A   Mostly Cloudy
10:53 AM 44.1 °F 37.7 °F 35.1 °F 71% 29.81 in 10.0 mi WSW 12.7 mph - N/A   Overcast
11:53 AM 48.9 °F - 36.0 °F 61% 29.79 in 10.0 mi SW 10.4 mph 16.1 mph N/A   Clear
12:53 PM 51.1 °F - 34.0 °F 52% 29.78 in 10.0 mi SW 15.0 mph 24.2 mph N/A   Clear
1:53 PM 55.0 °F - 35.1 °F 47% 29.76 in 10.0 mi SW 11.5 mph 19.6 mph N/A   Clear
2:53 PM 57.0 °F - 27.0 °F 32% 29.76 in 10.0 mi West 19.6 mph 35.7 mph N/A   Mostly Cloudy
3:53 PM 59.0 °F - 26.1 °F 28% 29.79 in 10.0 mi West 23.0 mph 36.8 mph N/A   Clear
4:53 PM 57.0 °F - 24.1 °F 28% 29.80 in 10.0 mi WNW 20.7 mph 29.9 mph N/A   Clear
5:53 PM 55.9 °F - 21.9 °F 27% 29.83 in 10.0 mi WNW 16.1 mph 23.0 mph N/A   Clear
6:53 PM 52.0 °F - 21.9 °F 31% 29.87 in 10.0 mi WNW 9.2 mph - N/A   Clear
7:53 PM 42.1 °F 38.4 °F 21.0 °F 43% 29.90 in 10.0 mi West 5.8 mph - N/A   Clear
8:53 PM 37.0 °F 32.4 °F 21.0 °F 52% 29.92 in 10.0 mi West 5.8 mph - N/A   Clear
9:53 PM 35.1 °F 29.3 °F 21.0 °F 57% 29.95 in 10.0 mi WNW 6.9 mph - N/A   Partly Cloudy
10:53 PM 43.0 °F 39.5 °F 23.0 °F 45% 29.96 in 10.0 mi NW 5.8 mph - N/A   Clear
11:53 PM 43.0 °F 37.2 °F 25.0 °F 49% 29.98 in 10.0 mi WNW 10.4 mph - N/A   Clear